User: anonymous
Location: Unspecified
(0.0000°N, 0.0000°E)
Time: 21:26:12
(UTC+02:00)
Language:

Meteor 1-31 Rocket - Orbit

View from above orbital plane
View from above orbital plane
View from above satellite
View from above satellite

Ground track
Ground track

The orbit data is extracted from the following two-line orbital elements,

1 12586U 81065B   14106.46927561  .00002726  00000-0  19152-3 0  3503
2 12586 097.4032 107.7983 0020189 208.0020 152.0122 15.05773041781974
Epoch (UTC): 16 April 2014 11:15:45
Eccentricity: 0.0020189
inclination: 97.4032°
perigee height: 535 km
apogee height: 563 km
right ascension of ascending node: 107.7983°
argument of perigee: 208.0020°
revolutions per day: 15.05773041
mean anomaly at epoch: 152.0122°
orbit number at epoch: 78197

The dashed part of the orbit path shows where the satellite is in the earth's shadow,  

DLR